Location: Chandrammap?lem
(16.9200°N, 81.0051°E)
Time: 20:33:46
(UTC+00:00)

Terra - Pass Details

Date: 29 May 2024
Orbit: 692 x 695 km, 98.0° (Epoch: 16 June)

Event Time Altitude Azimuth Distance (km) Brightness Sun altitude
Exits shadow 15:28:09 11° 27° (NNE) 2,110 4.4 -30.4°
Drops below altitude 10° 15:28:15 10° 26° (NNE) 2,140 4.4 -30.4°
Sets 15:30:58 0° 10° (N) 3,060 5.5 -30.9°
